Location: Melita
(38.4566°N, 122.6369°W)
Time: 13:36:13
(UTC+00:00)

Cosmos 1908 - Pass Details

Date: 24 January 2020
Orbit: 511 x 532 km, 82.5° (Epoch: 16 February)

Event Time Altitude Azimuth Distance (km) Brightness Sun altitude
Rises 13:33:11 0° 181° (S) 2,659 6.9 -21.3°
Reaches altitude 10° 13:35:19 10° 179° (S) 1,774 6.0 -20.9°
Maximum altitude 13:39:12 72° 96° (E) 563 3.4 -20.1°
Drops below altitude 10° 13:43:06 10° 12° (NNE) 1,784 5.9 -19.4°
Sets 13:45:15 0° 10° (N) 2,676 6.8 -19.0°
